Satellite: CO-57
Catalog number: 27848
Epoch time:      09189.52437959
Element set:    0565
Inclination:      098.7144 deg
RA of node:       197.4485 deg
Eccentricity:    0.0010762
Arg of perigee:   086.4288 deg
Mean anomaly:     273.8116 deg
Mean motion:   14.20446825 rev/day
Decay rate:        2.3e-07 rev/day^2
Epoch rev:           31225
Checksum:              344

Satellite: AO-51
Catalog number: 28375
Epoch time:      09189.56476909
Element set:    0432
Inclination:      098.0514 deg
RA of node:       197.9207 deg
Eccentricity:    0.0085225
Arg of perigee:   060.1479 deg
Mean anomaly:     300.8146 deg
Mean motion:   14.40646367 rev/day
Decay rate:       -4.0e-08 rev/day^2
Epoch rev:           26403
Checksum:              319

Satellite: CO-56
Catalog number: 28941
Epoch time:      09190.49153535
Element set:     240
Inclination:      098.1377 deg
RA of node:       009.1642 deg
Eccentricity:    0.0077522
Arg of perigee:   048.2193 deg
Mean anomaly:     312.6223 deg
Mean motion:   15.87571920 rev/day
Decay rate:     6.9356e-04 rev/day^2
Epoch rev:           19078
Checksum:              328

Satellite: GENESAT1
Catalog number: 29655
Epoch time:      09190.75951282
Element set:     752
Inclination:      040.0234 deg
RA of node:       041.8335 deg
Eccentricity:    0.0004148
Arg of perigee:   301.2155 deg
Mean anomaly:     058.8277 deg
Mean motion:   15.66023853 rev/day
Decay rate:      9.603e-05 rev/day^2
Epoch rev:           14601
Checksum:              285

Satellite: CP3
Catalog number: 31129
Epoch time:      09190.42833219
Element set:      52
Inclination:      097.9891 deg
RA of node:       242.4416 deg
Eccentricity:    0.0101454
Arg of perigee:   215.7618 deg
Mean anomaly:     143.6760 deg
Mean motion:   14.52146202 rev/day
Decay rate:       1.15e-06 rev/day^2
Epoch rev:           11811
Checksum:              270

Satellite: CO-65
Catalog number: 32785
Epoch time:      09190.88616821
Element set:     413
Inclination:      097.9446 deg
RA of node:       254.6654 deg
Eccentricity:    0.0014513
Arg of perigee:   322.1943 deg
Mean anomaly:     037.8249 deg
Mean motion:   14.81498190 rev/day
Decay rate:       2.38e-06 rev/day^2
Epoch rev:            6480
Checksum:              331

Satellite: KKS-1
Catalog number: 33493
Epoch time:      09190.46719678
Element set:     551
Inclination:      098.0584 deg
RA of node:       302.7752 deg
Eccentricity:    0.0020408
Arg of perigee:   166.0576 deg
Mean anomaly:     194.1205 deg
Mean motion:   14.80695027 rev/day
Decay rate:       1.58e-06 rev/day^2
Epoch rev:            2476
Checksum:              313

Satellite: SOHLA-1
Catalog number: 33496
Epoch time:      09190.44917436
Element set:     514
Inclination:      098.0392 deg
RA of node:       299.4114 deg
Eccentricity:    0.0005874
Arg of perigee:   202.8476 deg
Mean anomaly:     157.2468 deg
Mean motion:   14.69439043 rev/day
Decay rate:     -.00000000 rev/day^2
Epoch rev:            2454
Checksum:              302

/EX
SB KEPS @ AMSAT  $ORB09190.W
Orbital Elements  09190.WEATHER

HR AMSAT ORBITAL ELEMENTS FOR WEATHER SATELLITES
FROM WA5QGD FORT WORTH,TX July 9, 2009
Send Subscribe/unsubscribe to KEPS at 
http://www.amsat.org/mailman/listinfo/keps
BID: ORB09190.W
TO ALL RADIO AMATEURS BT

Satellite: NOAA-10
Catalog number: 16969
Epoch time:      09190.44827055
Element set:     678
Inclination:      098.6897 deg
RA of node:       216.9734 deg
Eccentricity:    0.0012904
Arg of perigee:   129.1191 deg
Mean anomaly:     231.1144 deg
Mean motion:   14.27390197 rev/day
Decay rate:        4.4e-07 rev/day^2
Epoch rev:           18668
Checksum:              333

Satellite: NOAA-11
Catalog number: 19531
Epoch time:      09190.34149911
Element set:     697
Inclination:      098.7866 deg
RA of node:       279.9535 deg
Eccentricity:    0.0012168
Arg of perigee:   048.6069 deg
Mean anomaly:     311.6137 deg
Mean motion:   14.14897775 rev/day
Decay rate:      -1.66e-06 rev/day^2
Epoch rev:            7265
Checksum:              348

Satellite: NOAA-12
Catalog number: 21263
Epoch time:      09190.70739626
Element set:     182
Inclination:      098.7704 deg
RA of node:       198.7779 deg
Eccentricity:    0.0013515
Arg of perigee:   081.8535 deg
Mean anomaly:     278.4653 deg
Mean motion:   14.25584686 rev/day
Decay rate:        4.6e-07 rev/day^2
Epoch rev:           94364
Checksum:              346

Satellite: MET-3/5
Catalog number: 21655
Epoch time:      09189.95240727
Element set:    0628
Inclination:      082.5527 deg
RA of node:       191.1181 deg
Eccentricity:    0.0014394
Arg of perigee:   122.1030 deg
Mean anomaly:     238.1491 deg
Mean motion:   13.17019949 rev/day
Decay rate:        5.1e-07 rev/day^2
Epoch rev:           86049
Checksum:              303

Satellite: MET-2/21
Catalog number: 22782
Epoch time:      09190.45187329
Element set:     505
Inclination:      082.5468 deg
RA of node:       164.3477 deg
Eccentricity:    0.0020819
Arg of perigee:   285.8482 deg
Mean anomaly:     074.0381 deg
Mean motion:   13.83635864 rev/day
Decay rate:       -3.6e-07 rev/day^2
Epoch rev:           80068
Checksum:              329

